Tracking 29594 objects as of 20-Sep-2024
HD Live streaming from Space Station
objects crossing your sky now

STARLINK-4581

Track STARLINK-4581 now!
10-day predictions
STARLINK-4581 is classified as:


NORAD ID: 53576
Int'l Code: 2022-101BB
Perigee: 545.9 km
Apogee: 547.9 km
Inclination: 53.2 °
Period: 95.4 minutes
Semi major axis: 6917 km
RCS: Unknown
Launch date: August 19, 2022
Source: United States (US)
Launch site: AIR FORCE EASTERN TEST RANGE (AFETR)
Your satellite tracking list
Your tracking list is empty




NASA's NSSDC Master Catalog

Two Line Element Set (TLE):
1 53576U 22101BB  24263.51374075  .00000909  00000-0  75184-4 0  9998
2 53576  53.2157 300.9063 0001427  94.7226 265.3929 15.08844477116323
Source of the keplerian elements: AFSPC